Home   Weather   Thusis   Past weeks

Flag for Switzerland Past Weather in Thusis, Graubünden, Switzerland — Yesterday and Last 2 Weeks

Now
62 °F

Fog.


Feels Like: 62 °F
Forecast: 43 / 58 °F
Wind: 1 mph from North

Location: Chur

Current Time: Jul 24, 2017 at 2:57:36 am

Latest Report: Jul 24, 2017 at 2:00 am


Visibility: 4 mi

Pressure: 29.96 "Hg (27.52 "Hg at 718m altitude)

Humidity: 90%

Dew Point: 59 °F

Location of ThusisLocation

Past Weather in Thusis — Graph

°F

Thusis Temperature Yesterday

Maximum temperature yesterday: 72 °F (at 12:00 pm)
Minimum temperature yesterday: 60 °F (at 6:00 am)
Average temperature yesterday: 67 °F

High & Low Weather Summary for the Past Weeks

 TemperatureHumidityPressure
High92 °F (Jul 19, 4:00 pm)95% (Jul 10, 11:00 pm)30.31 "Hg (Jul 10, 11:00 pm)
Low52 °F (Jul 16, 6:00 am)26% (Jul 19, 4:00 pm)29.72 "Hg (Jul 21, 6:00 pm)
Average68 °F69%30.00 "Hg
* Reported Jul 9 1:00 am — Jul 24 1:00 am, Thusis. Weather by CustomWeather, © 2017

Note: Actual official high and low records may vary slightly from our data, if they occured in-between our weather recording intervals... More about our weather records

Advertising

Thusis Weather History for the Previous 24 Hours

Scroll right to see more
 ConditionsComfort  
Time TempWeatherWind HumidityBarometerVisibility
1:00 am
Mon, Jul 24
62 °FCool.2 mph93%29.98 "HgN/A
12:00 am62 °FCool.2 mph90%29.99 "HgN/A
11:00 pm
Sun, Jul 23
64 °FLow clouds.3 mph76%29.99 "Hg6 mi
10:00 pm65 °FMild.6 mph73%29.99 "HgN/A
9:00 pm65 °FMild.8 mph73%29.98 "HgN/A
8:00 pm66 °FPartly sunny.9 mph70%29.97 "Hg10 mi
7:00 pm68 °FMild.16 mph65%29.97 "HgN/A
6:00 pm69 °FMild.16 mph65%29.97 "HgN/A
5:00 pm71 °FScattered clouds.21 mph62%29.96 "Hg9 mi
4:00 pm71 °FMild.20 mph63%29.97 "HgN/A
3:00 pm71 °FMild.21 mph65%29.98 "HgN/A
2:00 pm72 °FFog.17 mph64%29.98 "Hg7 mi
1:00 pm71 °FMild.18 mph68%29.99 "HgN/A
12:00 pm72 °FMild.14 mph68%29.98 "HgN/A
11:00 am72 °FOvercast.6 mph66%29.99 "Hg7 mi
10:00 am66 °FMild.1 mph73%30.04 "HgN/A
9:00 am64 °FMild.No wind80%30.06 "HgN/A
8:00 am63 °FFog.2 mph84%30.05 "Hg7 mi
7:00 am61 °FCool.2 mph85%30.06 "HgN/A
6:00 am60 °FCool.1 mph93%30.06 "HgN/A
5:00 am61 °FCool.2 mph91%30.05 "HgN/A
4:00 am63 °FMild.1 mph92%30.03 "HgN/A
2:00 am65 °FFog.7 mph82%30.04 "Hg6 mi
Weather by CustomWeather, © 2017

See weather overviewHow to use our weather pages